This demonstration page uses our WeatherBlox Daily Observations layout. Learn more.

Left ArrowRight Arrow

Hourly Observations for July 14, 2016

Temp ( °F °C ) Dew Point ( °F °C ) Humidity (%) Winds ( mph kmh ) Pressure ( in mb ) Visibility ( mi km ) Precip ( " mm )
12:15 am 00:15 Clear 69 20.8 64 17.7 83 83 E 8 13 29.91 1013 10 16 N/A
12:35 am 00:35 Clear 68 20 63 17.3 85 85 E 8 13 29.94 1014 10 16 N/A
12:55 am 00:55 Clear 67 19.6 63 17 85 85 E 7 11 29.91 1013 10 16 N/A
1:15 am 01:15 Clear 67 19.5 62 16.7 84 84 E 8 13 29.91 1013 10 16 N/A
1:35 am 01:35 Clear with Nearby Thunderstorms 67 19.2 62 16.4 84 84 SE 5 7 29.97 1015 10 16 N/A
1:55 am 01:55 Clear 65 18.5 61 16.1 86 86 SE 5 7 29.97 1015 10 16 N/A
2:15 am 02:15 Clear 65 18.3 61 16.1 87 87 N N/A 29.97 1015 10 16 N/A
2:35 am 02:35 Clear 66 19 62 16.6 86 86 N N/A 29.97 1015 10 16 N/A
2:55 am 02:55 Clear 64 17.9 61 16.2 90 90 N N/A 29.97 1015 10 16 N/A
3:15 am 03:15 Clear 65 18.3 61 16.2 88 88 N N/A 29.97 1015 10 16 N/A
3:35 am 03:35 Clear 64 18 61 16.3 90 90 N N/A 29.97 1015 10 16 N/A
3:55 am 03:55 Clear with Nearby Thunderstorms 65 18.2 62 16.6 90 90 SE 3 6 29.97 1015 10 16 N/A
4:15 am 04:15 Clear with Nearby Thunderstorms 65 18.6 62 16.7 89 89 N N/A 29.97 1015 10 16 N/A
4:35 am 04:35 Clear with Nearby Thunderstorms 67 19.2 62 16.5 84 84 N N/A 30.00 1016 10 16 N/A
4:55 am 04:55 Clear 68 20 63 17 83 83 S 3 6 30.03 1017 10 16 0.01 0.25
5:15 am 05:15 Clear with Light Rain 67 19.3 63 17.2 88 88 N N/A 30.06 1018 10 16 0.01 0.25
5:35 am 05:35 Clear 67 19.7 63 17.4 87 87 SE 9 15 30.00 1016 10 16 0.01 0.25
5:55 am 05:55 Clear 69 20.8 62 16.9 78 78 SW 5 7 29.97 1015 10 16 0.01 0.25
6:15 am 06:15 Clear 69 20.8 61 16.1 75 75 SSE 7 11 30.00 1016 10 16 N/A
6:35 am 06:35 Sunny with Light Rain 68 20.2 62 16.6 80 80 S 7 11 30.03 1017 10 16 N/A
6:55 am 06:55 Sunny 70 21.1 62 16.6 76 76 N N/A 29.97 1015 10 16 N/A
7:15 am 07:15 Sunny 67 19.6 63 17 85 85 NNW 7 11 30.03 1017 10 16 N/A
7:35 am 07:35 Sunny 67 19.4 63 17.2 87 87 NNE 6 9 30.00 1016 10 16 N/A
7:55 am 07:55 Sunny 67 19.3 63 17.4 89 89 N 5 7 30.00 1016 10 16 N/A
8:15 am 08:15 Sunny 68 20 64 17.6 86 86 N N/A 29.94 1014 10 16 N/A
8:35 am 08:35 Sunny 70 20.9 65 18.2 85 85 N 5 7 29.97 1015 10 16 N/A
8:55 am 08:55 Sunny 69 20.6 65 18.2 86 86 N 6 9 30.00 1016 10 16 N/A
9:15 am 09:15 Sunny 70 21.3 66 18.7 85 85 NNE 6 9 30.00 1016 10 16 N/A
9:35 am 09:35 Sunny 72 22.2 67 19.2 83 83 NNE 13 20 30.00 1016 10 16 N/A
9:55 am 09:55 Sunny 74 23.3 65 18.3 74 74 NNE 8 13 29.97 1015 10 16 N/A
10:15 am 10:15 Sunny 76 24.3 65 18.3 69 69 NNE 13 20 29.97 1015 10 16 N/A
10:35 am 10:35 Sunny with Nearby Thunderstorms 74 23.6 65 18.6 74 74 NNE 14 22 29.97 1015 10 16 N/A
10:55 am 10:55 Sunny 74 23.6 65 18.1 71 71 NNE 14 22 29.97 1015 10 16 N/A
11:15 am 11:15 Partly Cloudy 74 23.6 63 17.3 68 68 NNE 7 11 30.00 1016 10 16 N/A
11:35 am 11:35 Mostly Cloudy 75 23.7 63 17 66 66 N N/A 30.03 1017 10 16 N/A
11:55 am 11:55 Partly Cloudy 75 24.1 62 16.9 64 64 N N/A 30.03 1017 10 16 N/A
12:15 pm 12:15 Sunny 77 24.9 62 16.5 60 60 N N/A 30.00 1016 10 16 N/A
12:35 pm 12:35 Partly Cloudy 77 25.1 62 16.6 59 59 NE 6 9 30.00 1016 10 16 N/A
12:55 pm 12:55 Sunny 78 25.8 61 16 55 55 NE 8 13 30.00 1016 10 16 N/A
1:15 pm 13:15 Sunny 79 26.2 62 16.7 56 56 ENE 7 11 30.00 1016 10 16 N/A
1:35 pm 13:35 Sunny 81 27.4 59 15.2 47 47 NE 8 13 30.00 1016 10 16 N/A
1:55 pm 13:55 Sunny 82 27.6 59 14.8 46 46 NE 12 19 30.00 1016 10 16 N/A
2:15 pm 14:15 Partly Cloudy 80 26.7 58 14.2 46 46 ENE 8 13 30.00 1016 10 16 N/A
2:35 pm 14:35 Partly Cloudy 81 27.3 59 15 47 47 ENE 8 13 29.97 1015 10 16 N/A
2:55 pm 14:55 Partly Cloudy 82 28 59 15.2 46 46 ENE 9 15 29.94 1014 10 16 N/A
3:15 pm 15:15 Partly Cloudy 82 28 54 12.1 37 37 E 8 13 29.94 1014 10 16 N/A
3:35 pm 15:35 Partly Cloudy 83 28.1 55 12.5 38 38 E 7 11 29.94 1014 10 16 N/A
3:55 pm 15:55 Sunny 83 28.2 53 11.8 36 36 E 6 9 29.94 1014 10 16 N/A
4:15 pm 16:15 Sunny 84 28.7 52 11 33 33 ENE 5 7 29.94 1014 10 16 N/A
4:35 pm 16:35 Sunny 83 28.5 52 11.2 34 34 E 5 7 29.94 1014 10 16 N/A
4:55 pm 16:55 Sunny 83 28.2 53 11.7 36 36 SE 5 7 29.94 1014 10 16 N/A
5:15 pm 17:15 Sunny 83 28.2 53 11.5 35 35 N N/A 29.94 1014 10 16 N/A
5:35 pm 17:35 Sunny 83 28.1 53 11.9 37 37 SE 3 6 29.94 1014 10 16 N/A
5:55 pm 17:55 Sunny 83 28.2 54 12 37 37 N N/A 29.94 1014 10 16 N/A
6:15 pm 18:15 Sunny 83 28.2 56 13.1 39 39 ENE 3 6 29.94 1014 10 16 N/A
6:35 pm 18:35 Sunny 82 28 55 13 40 40 N N/A 29.94 1014 10 16 N/A
6:55 pm 18:55 Sunny 82 28 56 13.5 41 41 ESE 7 11 29.91 1013 10 16 N/A
7:15 pm 19:15 Sunny 82 27.8 57 14 43 43 SE 5 7 29.94 1014 10 16 N/A
7:35 pm 19:35 Sunny 82 27.8 56 13.3 41 41 ESE 3 6 29.94 1014 10 16 N/A
7:55 pm 19:55 Sunny 81 27.2 58 14.4 45 45 E 3 6 29.94 1014 10 16 N/A
8:15 pm 20:15 Sunny 81 27.4 57 13.9 44 44 SSE 3 6 29.91 1013 10 16 N/A
8:35 pm 20:35 Sunny 80 26.5 59 15.2 50 50 N N/A 29.94 1014 10 16 N/A
8:55 pm 20:55 Sunny 78 25.6 61 15.9 55 55 N N/A 29.97 1015 10 16 N/A
9:15 pm 21:15 Clear 75 24 62 16.5 63 63 N N/A 29.97 1015 10 16 N/A
9:35 pm 21:35 Clear 73 23 63 17 69 69 N N/A 30.00 1016 10 16 N/A
9:55 pm 21:55 Clear 71 21.7 64 18 80 80 N N/A 30.00 1016 10 16 N/A
10:15 pm 22:15 Clear 70 21.3 64 17.5 79 79 N N/A 30.00 1016 10 16 N/A
10:35 pm 22:35 Clear 69 20.5 62 16.9 80 80 ESE 5 7 30.00 1016 10 16 N/A
10:55 pm 22:55 Clear 69 20.4 60 15.8 75 75 E 6 9 30.00 1016 10 16 N/A
11:15 pm 23:15 Clear 68 20 62 16.6 81 81 SE 5 7 30.03 1017 10 16 N/A
11:35 pm 23:35 Clear 65 18.6 61 16.3 87 87 SE 6 9 30.06 1018 10 16 N/A
11:55 pm 23:55 Clear 64 18 60 15.8 87 87 SE 8 13 30.03 1017 10 16 N/A

Powered by AerisWeather